When you browse on this site, cookies collect data to enhance your experience and personalize the content and advertising you see.
Visit our Privacy Policy to learn more. By continuing to use the site, you agree to this use of cookies and data.
  • Em Portugal
  • Lista de países
  • Para 7 dias
  • Temperatura da água
  • Mapas de satélite
  • Mapa do tempo
  • Widgets de tempo
  • user-avatar
    Iniciar Sessão

    Previsão horária em Krasnoe Lyado

    Hoje, 16 Julho, Terça-feira

    Tempo Temperatura Precipitação Vento Pressão Humidade
    00:00 +9°C° 0 mm 0 m/s 736 mmHg 91%
    01:00 +9°C° 0 mm 0 m/s 737 mmHg 92%
    02:00 +10°C° 0 mm 1 m/s 737 mmHg 92%
    03:00 +10°C° 0 mm 1 m/s 737 mmHg 91%
    04:00 +10°C° 0 mm 1 m/s 737 mmHg 91%
    05:00 +11°C° 0 mm 1 m/s 736 mmHg 90%
    06:00 +13°C° 0 mm 1 m/s 736 mmHg 83%
    07:00 +15°C° 0 mm 0 m/s 736 mmHg 75%
    08:00 +17°C° 0 mm 0 m/s 736 mmHg 66%
    09:00 +20°C° 0.2 mm 1 m/s 736 mmHg 62%
    10:00 +21°C° 0.2 mm 1 m/s 736 mmHg 58%
    11:00 +22°C° 0.2 mm 1 m/s 736 mmHg 54%
    12:00 +22°C° 0.3 mm 1 m/s 735 mmHg 55%
    13:00 +20°C° 0.3 mm 2 m/s 735 mmHg 57%
    14:00 +20°C° 0.3 mm 2 m/s 735 mmHg 59%
    15:00 +20°C° 0.1 mm 2 m/s 735 mmHg 61%
    16:00 +20°C° 0.1 mm 2 m/s 735 mmHg 64%
    17:00 +19°C° 0.1 mm 3 m/s 734 mmHg 66%
    18:00 +18°C° 0.1 mm 2 m/s 734 mmHg 74%
    19:00 +16°C° 0.1 mm 2 m/s 734 mmHg 83%
    20:00 +14°C° 0.1 mm 2 m/s 734 mmHg 91%
    21:00 +13°C° 0 mm 2 m/s 734 mmHg 93%
    22:00 +12°C° 0 mm 2 m/s 734 mmHg 95%
    23:00 +10°C° 0 mm 2 m/s 733 mmHg 96%

    Amanhã, 17 Julho, Quarta-feira

    Tempo Temperatura Precipitação Vento Pressão Humidade
    00:00 +10°C° 0 mm 2 m/s 733 mmHg 97%
    01:00 +10°C° 0 mm 2 m/s 733 mmHg 97%
    02:00 +10°C° 0 mm 2 m/s 733 mmHg 98%
    03:00 +11°C° 0 mm 1 m/s 733 mmHg 98%
    04:00 +11°C° 0 mm 1 m/s 733 mmHg 98%
    05:00 +12°C° 0 mm 1 m/s 733 mmHg 98%
    06:00 +13°C° 0 mm 1 m/s 733 mmHg 96%
    07:00 +14°C° 0 mm 1 m/s 732 mmHg 93%
    08:00 +15°C° 0 mm 1 m/s 732 mmHg 91%
    09:00 +16°C° 0 mm 1 m/s 732 mmHg 87%
    10:00 +16°C° 0 mm 1 m/s 732 mmHg 82%
    11:00 +18°C° 0 mm 1 m/s 732 mmHg 78%
    12:00 +19°C° 0 mm 1 m/s 732 mmHg 73%
    13:00 +20°C° 0 mm 1 m/s 732 mmHg 68%
    14:00 +21°C° 0 mm 1 m/s 732 mmHg 64%
    15:00 +21°C° 0.2 mm 1 m/s 732 mmHg 65%
    16:00 +21°C° 0.2 mm 1 m/s 732 mmHg 67%
    17:00 +21°C° 0.2 mm 1 m/s 732 mmHg 68%
    18:00 +20°C° 0.2 mm 1 m/s 731 mmHg 75%
    19:00 +18°C° 0.2 mm 1 m/s 731 mmHg 81%
    20:00 +16°C° 0.2 mm 1 m/s 731 mmHg 87%
    21:00 +15°C° 0.8 mm 1 m/s 731 mmHg 90%
    22:00 +15°C° 0.8 mm 1 m/s 731 mmHg 93%
    23:00 +14°C° 0.8 mm 1 m/s 731 mmHg 96%

    Depois de amanhã, 18 Julho, Quinta-feira

    Tempo Temperatura Precipitação Vento Pressão Humidade
    00:00 +14°C° 0.5 mm 1 m/s 731 mmHg 97%
    01:00 +14°C° 0.5 mm 1 m/s 731 mmHg 97%
    02:00 +14°C° 0.5 mm 1 m/s 731 mmHg 98%
    03:00 +14°C° 0.2 mm 1 m/s 730 mmHg 98%
    04:00 +14°C° 0.2 mm 1 m/s 730 mmHg 98%
    05:00 +14°C° 0.2 mm 1 m/s 730 mmHg 98%
    06:00 +14°C° 0.5 mm 1 m/s 730 mmHg 98%
    07:00 +14°C° 0.5 mm 1 m/s 730 mmHg 97%
    08:00 +14°C° 0.5 mm 0 m/s 730 mmHg 97%
    09:00 +16°C° 1.1 mm 1 m/s 730 mmHg 94%
    10:00 +18°C° 1.1 mm 1 m/s 730 mmHg 91%
    11:00 +19°C° 1.1 mm 1 m/s 730 mmHg 88%
    12:00 +20°C° 1.1 mm 1 m/s 730 mmHg 84%
    13:00 +20°C° 1.1 mm 1 m/s 730 mmHg 79%
    14:00 +21°C° 1.1 mm 1 m/s 730 mmHg 75%
    15:00 +20°C° 0.7 mm 1 m/s 730 mmHg 77%
    16:00 +20°C° 0.7 mm 1 m/s 730 mmHg 79%
    17:00 +20°C° 0.7 mm 1 m/s 730 mmHg 81%
    18:00 +19°C° 0.9 mm 1 m/s 730 mmHg 85%
    19:00 +16°C° 0.9 mm 1 m/s 730 mmHg 89%
    20:00 +15°C° 0.9 mm 1 m/s 730 mmHg 92%
    21:00 +15°C° 0.2 mm 1 m/s 730 mmHg 93%
    22:00 +13°C° 0.2 mm 0 m/s 730 mmHg 93%
    23:00 +12°C° 0.2 mm 0 m/s 730 mmHg 94%

    19 Julho, Sexta-feira

    Tempo Temperatura Precipitação Vento Pressão Humidade
    00:00 +12°C° 0.1 mm 0 m/s 730 mmHg 94%
    01:00 +12°C° 0.1 mm 0 m/s 730 mmHg 95%
    02:00 +11°C° 0.1 mm 0 m/s 730 mmHg 96%
    03:00 +12°C° 0.1 mm 0 m/s 730 mmHg 96%
    04:00 +12°C° 0.1 mm 0 m/s 730 mmHg 97%
    05:00 +13°C° 0.1 mm 1 m/s 731 mmHg 97%
    06:00 +14°C° 0.1 mm 1 m/s 731 mmHg 96%
    07:00 +15°C° 0.1 mm 1 m/s 731 mmHg 95%
    08:00 +15°C° 0.1 mm 1 m/s 731 mmHg 93%
    09:00 +16°C° 0 mm 2 m/s 731 mmHg 92%
    10:00 +16°C° 0 mm 2 m/s 732 mmHg 90%
    11:00 +16°C° 0 mm 2 m/s 732 mmHg 88%
    12:00 +17°C° 0.1 mm 2 m/s 732 mmHg 84%
    13:00 +18°C° 0.1 mm 2 m/s 732 mmHg 80%
    14:00 +19°C° 0.1 mm 3 m/s 732 mmHg 76%
    15:00 +19°C° 0.3 mm 2 m/s 732 mmHg 78%
    16:00 +19°C° 0.3 mm 2 m/s 732 mmHg 79%
    17:00 +19°C° 0.3 mm 2 m/s 732 mmHg 81%
    18:00 +17°C° 0.6 mm 2 m/s 733 mmHg 85%
    19:00 +16°C° 0.6 mm 2 m/s 733 mmHg 90%
    20:00 +15°C° 0.6 mm 2 m/s 733 mmHg 95%
    21:00 +14°C° 1.3 mm 3 m/s 733 mmHg 96%
    22:00 +14°C° 1.3 mm 3 m/s 733 mmHg 97%
    23:00 +13°C° 1.3 mm 3 m/s 733 mmHg 98%

    20 Julho, Sábado

    Tempo Temperatura Precipitação Vento Pressão Humidade
    00:00 +13°C° 0.2 mm 3 m/s 734 mmHg 98%
    01:00 +13°C° 0.2 mm 3 m/s 734 mmHg 98%
    02:00 +13°C° 0.2 mm 3 m/s 734 mmHg 98%
    03:00 +13°C° 0.2 mm 3 m/s 734 mmHg 98%
    04:00 +13°C° 0.2 mm 3 m/s 734 mmHg 98%
    05:00 +13°C° 0.2 mm 3 m/s 735 mmHg 98%
    06:00 +13°C° 0.1 mm 3 m/s 735 mmHg 97%
    07:00 +14°C° 0.1 mm 3 m/s 735 mmHg 97%
    08:00 +14°C° 0.1 mm 3 m/s 735 mmHg 96%
    09:00 +14°C° 0.1 mm 3 m/s 736 mmHg 93%
    10:00 +16°C° 0.1 mm 3 m/s 736 mmHg 91%
    11:00 +17°C° 0.1 mm 3 m/s 737 mmHg 88%
    12:00 +17°C° 0.1 mm 3 m/s 737 mmHg 84%
    13:00 +18°C° 0.1 mm 3 m/s 737 mmHg 80%
    14:00 +19°C° 0.1 mm 3 m/s 737 mmHg 77%
    15:00 +19°C° 0.4 mm 3 m/s 737 mmHg 80%
    16:00 +19°C° 0.4 mm 3 m/s 738 mmHg 82%
    17:00 +19°C° 0.4 mm 3 m/s 738 mmHg 85%
    18:00 +18°C° 0.3 mm 3 m/s 738 mmHg 89%
    19:00 +17°C° 0.3 mm 2 m/s 738 mmHg 92%
    20:00 +16°C° 0.3 mm 2 m/s 738 mmHg 96%
    21:00 +15°C° 0.2 mm 2 m/s 738 mmHg 97%
    22:00 +15°C° 0.2 mm 2 m/s 739 mmHg 97%
    23:00 +14°C° 0.2 mm 2 m/s 739 mmHg 98%

    21 Julho, Domingo

    Tempo Temperatura Precipitação Vento Pressão Humidade
    00:00 +14°C° 0 mm 2 m/s 739 mmHg 98%
    01:00 +13°C° 0 mm 2 m/s 739 mmHg 98%
    02:00 +13°C° 0 mm 1 m/s 739 mmHg 98%
    03:00 +13°C° 0 mm 1 m/s 740 mmHg 99%
    04:00 +13°C° 0 mm 1 m/s 740 mmHg 99%
    05:00 +13°C° 0 mm 1 m/s 740 mmHg 99%
    06:00 +15°C° 0 mm 1 m/s 740 mmHg 96%
    07:00 +16°C° 0 mm 1 m/s 741 mmHg 92%
    08:00 +18°C° 0 mm 1 m/s 741 mmHg 89%
    09:00 +19°C° 0.5 mm 1 m/s 741 mmHg 86%
    10:00 +19°C° 0.5 mm 2 m/s 741 mmHg 84%
    11:00 +20°C° 0.5 mm 2 m/s 741 mmHg 81%
    12:00 +21°C° 1 mm 2 m/s 741 mmHg 81%
    13:00 +21°C° 1 mm 2 m/s 741 mmHg 80%
    14:00 +21°C° 1 mm 2 m/s 741 mmHg 80%
    15:00 +21°C° 0.5 mm 2 m/s 741 mmHg 79%
    16:00 +21°C° 0.5 mm 2 m/s 741 mmHg 78%
    17:00 +21°C° 0.5 mm 2 m/s 741 mmHg 77%
    18:00 +20°C° 0.2 mm 2 m/s 741 mmHg 83%
    19:00 +18°C° 0.2 mm 2 m/s 742 mmHg 88%
    20:00 +18°C° 0.2 mm 1 m/s 742 mmHg 94%
    21:00 +16°C° 0 mm 1 m/s 742 mmHg 95%
    22:00 +15°C° 0 mm 1 m/s 742 mmHg 96%
    23:00 +14°C° 0 mm 1 m/s 742 mmHg 96%
    Mostrar mais